Regional Weather Roundup
Issued by NWS

Home | Current Version | Previous Version | Text Only | Print | Product List | Glossary Off
Versions: 1 2 3 4 5 6 7 8 9 10 11 12 13 14 15 16 17 18 19 20 21 22 23 24 25 26 27 28 29 30 31 32 33 34 35 36 37 38 39 40 41 42 43 44 45 46 47 48 49 50

000
ASUS43 KMPX 210301
RWRMN
WEATHER ROUNDUP FOR MINNESOTA
NATIONAL WEATHER SERVICE TWIN CITIES/CHANHASSEN MN
1000 PM CDT SAT SEP 20 2014


NOTE: "FAIR" INDICATES FEW OR NO CLOUDS BELOW 12,000 FEET WITH NO
SIGNIFICANT WEATHER AND/OR OBSTRUCTIONS TO VISIBILITY. N/A MEANS
CURRENT SKY AND/OR WEATHER CONDITIONS ARE NOT AVAILABLE.

MNZ060>063-068>070-210400-
   Twin Cities Metro

CITY           SKY/WX    TMP DP  RH WIND       PRES   REMARKS
TWIN CITIES    CLEAR     58  52  80 W8        29.85S
ST PAUL        CLEAR     58  51  78 W10       29.85R
CRYSTAL        CLEAR     58  51  78 W10       29.83S
BLAINE         PTCLDY    57  54  88 W9        29.84S
LAKEVILLE      CLEAR     55  52  88 W8        29.87R
EDEN PRAIRIE   CLEAR     57  52  83 W7        29.85S
SOUTH ST PAUL  CLEAR     58  52  81 W7        29.85S
LAKE ELMO      FAIR      55  52  88 W10G17    29.84S
$$
MNZ001>005-007-008-013>017-022>024-027-028-210400-
   Northwest Minnesota

CITY           SKY/WX    TMP DP  RH WIND       PRES   REMARKS
BEMIDJI        MOCLDY    49  48  95 W8        29.86R
HALLOCK        PTCLDY    52  52 100 NW5       29.91R
ROSEAU         MOCLDY    48  45  87 N3        29.89R
WARROAD        CLOUDY    50  46  87 NW3       29.89R
THIEF RVR FALL PTCLDY    52  48  87 NW9       29.90R
CROOKSTON      DRIZZLE   54  52  94 NW9       29.92R
FOSSTON        MOCLDY    50  48  93 CALM      29.90R
DETROIT LAKES  PTCLDY    54  52  94 NW8       29.91R
MOORHEAD       PTCLDY    55  55 100 N7        29.92R
PARK RAPIDS    CLOUDY    51  49  92 NW13      29.87R
MAHNOMEN       LGT RAIN  54  51  91 NW3       29.89R
$$
MNZ006-009>011-018-025>026-210400-
   North Central Minnesota

CITY           SKY/WX    TMP DP  RH WIND       PRES   REMARKS
BAUDETTE       LGT RAIN  51  48  89 NW13      29.85R
FLAG ISLAND    LGT RAIN  52  48  87 N12       29.86R
INTL FALLS     LGT RAIN  51  49  92 NW14      29.81R
WASKISH        DRIZZLE   50  48  93 NW7       29.85R
BIG FORK       RAIN      50  48  93 NW7       29.82R
LONGVILLE      CLOUDY    52  48  87 NW8       29.83R
GRAND RAPIDS   CLOUDY    48  45  87 NW18G28   29.80R
CRANE LAKE     RAIN      52  52 100 N6        29.77R
ORR            CLOUDY    52  48  87 NW7       29.74R
COOK           CLOUDY    54  48  82 NW5       29.76R
WALKER         CLOUDY    49  47  90 NW6       29.85R
$$
MNZ012-019>021-037-210400-
   Northeast Minnesota

CITY           SKY/WX    TMP DP  RH WIND       PRES   REMARKS
DULUTH         LGT RAIN  54  51  90 NW6       29.71R
ELY            CLOUDY    50  48  93 CALM      29.73R
HIBBING        LGT RAIN  55  51  86 NW15      29.75R
EVELETH        LGT RAIN  52  50  93 NW5       29.75R
DULUTH HARBOR  LGT RAIN  55  54  94 SW7       29.71S
TWO HARBORS    CLOUDY    55  48  76 CALM      29.68S
SILVER BAY     CLOUDY    54  52  94 CALM      29.68S
GRAND MARAIS     N/A     56  52  86 NE3       29.70S
G MARAIS ARPRT CLOUDY    52  48  87 N6        29.72F
$$
MNZ029>031-032-039>041-046>048-054>057-064-210400-
   West Central Minnesota

CITY           SKY/WX    TMP DP  RH WIND       PRES   REMARKS
FERGUS FALLS   MOCLDY    55  48  76 NW10      29.90S
WHEATON        CLEAR     57  46  67 W10G16    29.94R
MORRIS         CLEAR     57  50  77 W13       29.90S
ALEXANDRIA     PTCLDY    53  50  89 W9        29.90R
ELBOW LAKE     FAIR      54  50  85 NW3       29.91R
WADENA         MOCLDY    54  48  82 W6        29.88R
GLENWOOD       PTCLDY    54  52  94 W8        29.90R
APPLETON       CLEAR     59  48  67 W9        29.92S
BENSON         CLEAR     55  50  82 NW9       29.91S
ORTONVILLE     CLEAR     61  46  59 NW10G20   29.94R
MADISON        CLEAR     57  50  77 W9        29.95R
WILLMAR        FAIR      55  52  88 W8        29.91S
$$
MNZ033>034-036-042>043-049>051-058-059-210400-
   Central Minnesota

CITY           SKY/WX    TMP DP  RH WIND       PRES   REMARKS
ST CLOUD       PTCLDY    59  50  72 W14       29.84S
SAUK CENTRE    MOCLDY    55  50  85 W9        29.88F
PAYNESVILLE    RAIN      51  51  99 W16G22    29.91R
AITKIN         CLOUDY    55  50  82 NW9       29.79R
PINE RIVER     PTCLDY    54  48  82 NW12G20   29.88R
BRAINERD       PTCLDY    55  46  71 NW12      29.83R
STAPLES        CLOUDY    55  48  76 NW13      29.86R
LONG PRAIRIE   FAIR      54  48  82 W10G17    29.88R
LITTLE FALLS   CLEAR     55  46  71 W6        29.86R
LITCHFIELD     CLEAR     57  55  94 W5        29.89S
BUFFALO        CLEAR     55  50  83 SW6       29.87S
MAPLE LAKE     CLEAR     57  53  85 W7        29.87S
$$
MNZ037-044-045-052-053-210400-
   East Central Minnesota

CITY           SKY/WX    TMP DP  RH WIND       PRES   REMARKS
PRINCETON      CLEAR     57  50  77 W9        29.82S
MORA           PTCLDY    55  46  71 W16G24    29.79S
CAMBRIDGE      CLEAR     59  46  63 W10G17    29.79S
RUSH CITY      PTCLDY    55  50  83 W7        29.78S
MOOSE LAKE     DRIZZLE   54  50  87 W13G18    29.72S
HINCKLEY       DRIZZLE   55  52  88 W12G20    29.76S
CLOQUET        LGT RAIN  54  52  94 W8        29.71S
MCGREGOR       CLOUDY    52  46  82 NW17G29   29.78R
$$
MNZ071>073-080-081-089-090-097-098-210400-
   Southwest Minnesota

CITY           SKY/WX    TMP DP  RH WIND       PRES   REMARKS
MONTEVIDEO     CLEAR     57  54  88 NW8       29.93S
GRANITE FALLS  CLEAR     52  51  94 SW8       29.94S
CANBY          CLEAR     59  47  66 W12       29.97R
MARSHALL       CLEAR     57  46  67 W12       29.95S
REDWOOD FALLS  CLEAR     58  54  86 W10       29.92S
OLIVIA         CLEAR     54  52  94 W7        29.91S
PIPESTONE      PTCLDY    61  45  55 NW7       30.00S
WINDOM         CLEAR     57  54  88 W5        29.97R
WORTHINGTON    PTCLDY    57  48  72 NW10      30.00R
JACKSON        CLEAR     59  52  77 NW9       29.97S
TRACY          CLEAR     58  51  76 CALM      29.97R
SLAYTON        PTCLDY    56  49  75 CALM      29.99S
$$
MNZ065>067-074>077-082>085-091>093-210400-
   South Central Minnesota

CITY           SKY/WX    TMP DP  RH WIND       PRES   REMARKS
MANKATO        CLEAR     57  52  82 W7        29.91S
NEW ULM        CLEAR     55  55 100 W6        29.92S
ST JAMES       CLEAR     59  55  88 W6        29.95R
FAIRMONT       CLEAR     57  52  82 W10       29.95S
GLENCOE        CLEAR     58  51  77 W7        29.88F
FARIBAULT      CLEAR     57  54  88 W7        29.90R
OWATONNA       CLEAR     57  54  88 NW8       29.90R
WASECA         CLEAR     55  52  88 NW9       29.93R
ALBERT LEA     CLEAR     57  55  94 NW9G16    29.91R
$$
MNZ078>079-086>088-094>096-210400-
   Southeast Minnesota

CITY           SKY/WX    TMP DP  RH WIND       PRES   REMARKS
ROCHESTER      PTCLDY    57  54  89 NW16G25   29.88R
RED WING       CLEAR     57  55  94 W12G17    29.84R
STANTON        CLEAR     57  53  85 W6        29.87R
DODGE CENTER   CLEAR     57  54  88 NW15      29.88R
WINONA         MOCLDY    61  55  82 NW13G20   29.82R
AUSTIN         CLEAR     57  54  88 NW14G20   29.90R
PRESTON        MOCLDY    57  57  99 NW21G30   29.87R
$$
ABBREVIATIONS USED IN REMARKS
   TC - TEMPERATURES IN CELSIUS
  WCI - WIND CHILL INDEX
   HX - HEAT INDEX
  VSB - VISIBILITY
$$


USA.gov is the U.S. government's official web portal to all federal, state and local government web resources and services.